IT9IRS-1 Weather Reports


Display with metric or nautical units.
time (UTC)temp
F
wind
direction
speed
MPH
gust
MPH
rain 1hr
in
rain 24hr
in
rain mn
in
humidity
%
barometer
mb
20260903162003 88 331 15.0 18.0 0.00 0.00 0.00 55 1011.3
20260903161716 89 322 16.0 24.0 0.00 0.00 0.00 55 1011.3
20260903161214 89 322 15.0 24.0 0.00 0.00 0.00 54 1011.3
20260903160504 89 334 14.0 18.0 0.00 0.00 0.00 54 1011.3
20260903160004 89 325 15.0 22.0 0.00 0.00 0.00 54 1011.3
20260903155504 90 320 16.0 22.0 0.00 0.00 0.00 54 1011.3
20260903155004 90 325 18.0 27.0 0.00 0.00 0.00 54 1011.3
20260903154504 90 323 17.0 27.0 0.00 0.00 0.00 53 1011.3
20260903154004 90 328 13.0 21.0 0.00 0.00 0.00 54 1011.3
20260903153715 90 331 11.0 21.0 0.00 0.00 0.00 54 1011.3
20260903153004 91 315 15.0 21.0 0.00 0.00 0.00 54 1011.3
20260903152716 90 320 15.0 23.0 0.00 0.00 0.00 54 1011.3
20260903152004 91 333 15.0 23.0 0.00 0.00 0.00 53 1011.3
20260903151504 92 327 16.0 27.0 0.00 0.00 0.00 52 1011.3
20260903151004 92 317 13.0 27.0 0.00 0.00 0.00 51 1011.3
20260903150504 92 317 13.0 18.0 0.00 0.00 0.00 51 1011.3
20260903150005 92 316 16.0 23.0 0.00 0.00 0.00 50 1011.3
20260903145504 92 318 15.0 23.0 0.00 0.00 0.00 50 1011.3
20260903145004 92 318 15.0 23.0 0.00 0.00 0.00 50 1011.3
20260903144504 93 312 15.0 24.0 0.00 0.00 0.00 50 1011.3
20260903144004 93 325 18.0 30.0 0.00 0.00 0.00 50 1011.3
20260903143504 93 327 18.0 30.0 0.00 0.00 0.00 49 1011.3
20260903143004 93 315 16.0 23.0 0.00 0.00 0.00 49 1011.3
20260903142504 93 322 17.0 24.0 0.00 0.00 0.00 47 1011.3
20260903142004 94 328 15.0 24.0 0.00 0.00 0.00 47 1011.3
20260903141504 94 325 15.0 22.0 0.00 0.00 0.00 45 1011.3
20260903141004 94 323 16.0 22.0 0.00 0.00 0.00 47 1011.3
20260903140504 94 323 19.0 32.0 0.00 0.00 0.00 44 1011.3
20260903140004 94 319 17.0 32.0 0.00 0.00 0.00 45 1011.3
20260903135503 94 330 14.0 21.0 0.00 0.00 0.00 44 1011.3
20260903135003 94 333 15.0 21.0 0.00 0.00 0.00 41 1011.3
20260903134503 94 326 15.0 21.0 0.00 0.00 0.00 44 1011.3
20260903134003 94 319 16.0 21.0 0.00 0.00 0.00 43 1011.3
20260903133503 94 324 18.0 28.0 0.00 0.00 0.00 43 1011.3
20260903133003 94 328 20.0 28.0 0.00 0.00 0.00 43 1011.3
20260903132717 94 326 20.0 26.0 0.00 0.00 0.00 43 1011.3
20260903132003 94 320 17.0 26.0 0.00 0.00 0.00 43 1011.3
20260903131504 94 313 18.0 24.0 0.00 0.00 0.00 43 1011.3
20260903131216 94 313 20.0 24.0 0.00 0.00 0.00 43 1011.3
20260903130714 94 317 18.0 24.0 0.00 0.00 0.00 42 1011.3
20260903130003 94 316 19.0 27.0 0.00 0.00 0.00 40 1011.3
20260903125505 94 324 16.0 24.0 0.00 0.00 0.00 40 1011.3
20260903125004 95 324 15.0 21.0 0.00 0.00 0.00 43 1012.3
20260903124503 94 327 13.0 21.0 0.00 0.00 0.00 43 1012.3
20260903124003 95 332 15.0 24.0 0.00 0.00 0.00 43 1012.3
20260903123503 95 328 18.0 24.0 0.00 0.00 0.00 42 1012.3
20260903123003 95 328 16.0 23.0 0.00 0.00 0.00 46 1012.3
20260903122504 95 322 15.0 22.0 0.00 0.00 0.00 44 1012.3
20260903122216 95 318 16.0 24.0 0.00 0.00 0.00 44 1011.3
20260903121713 96 311 17.0 24.0 0.00 0.00 0.00 39 1011.3
20260903121004 96 304 17.0 26.0 0.00 0.00 0.00 41 1011.3
20260903120504 96 319 16.0 24.0 0.00 0.00 0.00 42 1012.3
20260903120004 96 317 14.0 24.0 0.00 0.00 0.00 40 1012.3
20260903115504 96 312 13.0 18.0 0.00 0.00 0.00 42 1012.3
20260903115004 96 321 13.0 18.0 0.00 0.00 0.00 40 1012.3
20260903114504 96 329 15.0 27.0 0.00 0.00 0.00 41 1012.3
20260903114005 96 337 16.0 27.0 0.00 0.00 0.00 39 1012.3
20260903113504 96 330 16.0 24.0 0.00 0.00 0.00 36 1012.3
20260903113004 95 307 18.0 24.0 0.00 0.00 0.00 40 1012.3
20260903112504 94 299 14.0 24.0 0.00 0.00 0.00 42 1012.3
20260903112004 93 305 14.0 23.0 0.00 0.00 0.00 55 1012.3
20260903111504 93 306 17.0 23.0 0.00 0.00 0.00 58 1012.3
20260903111004 91 299 19.0 24.0 0.00 0.00 0.00 58 1012.3
20260903110503 91 292 20.0 32.0 0.00 0.00 0.00 59 1012.3
20260903110004 91 283 19.0 32.0 0.00 0.00 0.00 60 1012.3
20260903105716 91 290 18.0 24.0 0.00 0.00 0.00 60 1012.3
20260903105004 90 284 18.0 27.0 0.00 0.00 0.00 61 1012.3
20260903104503 90 283 17.0 27.0 0.00 0.00 0.00 61 1012.3
20260903104004 89 276 19.0 27.0 0.00 0.00 0.00 63 1012.3
20260903103713 89 277 20.0 27.0 0.00 0.00 0.00 63 1012.3
20260903103003 89 281 21.0 26.0 0.00 0.00 0.00 63 1012.3
20260903102504 89 272 20.0 26.0 0.00 0.00 0.00 64 1012.3
20260903102003 89 273 17.0 21.0 0.00 0.00 0.00 64 1012.3
20260903101503 89 294 16.0 21.0 0.00 0.00 0.00 63 1012.3
20260903101003 90 298 16.0 21.0 0.00 0.00 0.00 63 1012.3
20260903100503 89 288 16.0 21.0 0.00 0.00 0.00 63 1013.3
20260903100003 89 281 15.0 21.0 0.00 0.00 0.00 64 1013.3
20260903095503 90 298 15.0 20.0 0.00 0.00 0.00 64 1013.3
20260903095003 89 293 16.0 21.0 0.00 0.00 0.00 64 1013.3
20260903094503 89 278 16.0 21.0 0.00 0.00 0.00 63 1013.3
20260903094003 89 279 17.0 23.0 0.00 0.00 0.00 64 1013.3
20260903093503 89 282 16.0 23.0 0.00 0.00 0.00 64 1013.3
20260903093003 89 273 14.0 23.0 0.00 0.00 0.00 63 1013.3
20260903092503 89 274 11.0 14.0 0.00 0.00 0.00 62 1013.3
20260903092003 89 274 12.0 15.0 0.00 0.00 0.00 60 1013.3
20260903091505 90 272 13.0 17.0 0.00 0.00 0.00 59 1013.3
20260903091003 89 272 13.0 17.0 0.00 0.00 0.00 58 1013.3
20260903090503 89 270 12.0 14.0 0.00 0.00 0.00 58 1013.3
20260903090003 90 278 11.0 14.0 0.00 0.00 0.00 58 1013.3
20260903085503 90 293 8.0 13.0 0.00 0.00 0.00 55 1013.3
20260903085003 91 299 8.0 11.0 0.00 0.00 0.00 48 1013.3
20260903084503 90 295 8.0 11.0 0.00 0.00 0.00 55 1013.3
20260903084004 89 289 7.0 11.0 0.00 0.00 0.00 55 1013.3
20260903083504 90 300 6.0 10.0 0.00 0.00 0.00 54 1013.3
20260903083217 90 311 6.0 10.0 0.00 0.00 0.00 53 1013.3
20260903082504 88 296 6.0 12.0 0.00 0.00 0.00 57 1013.3
20260903082004 88 280 8.0 12.0 0.00 0.00 0.00 58 1013.3
20260903081504 88 293 8.0 12.0 0.00 0.00 0.00 56 1013.3
20260903081004 87 292 8.0 12.0 0.00 0.00 0.00 58 1013.3
20260903080504 87 296 7.0 12.0 0.00 0.00 0.00 58 1013.3
20260903080004 87 298 7.0 11.0 0.00 0.00 0.00 58 1013.3
20260903075504 86 284 7.0 12.0 0.00 0.00 0.00 57 1013.3
20260903075004 86 292 6.0 12.0 0.00 0.00 0.00 59 1013.3
20260903074504 86 301 7.0 14.0 0.00 0.00 0.00 59 1013.3
20260903074005 86 307 9.0 14.0 0.00 0.00 0.00 60 1013.3
20260903073504 85 305 9.0 14.0 0.00 0.00 0.00 61 1013.3
20260903073003 85 293 7.0 10.0 0.00 0.00 0.00 60 1013.3
20260903072716 85 304 5.0 9.0 0.00 0.00 0.00 63 1013.3
20260903072004 84 298 7.0 11.0 0.00 0.00 0.00 66 1013.3
20260903071504 84 298 8.0 11.0 0.00 0.00 0.00 67 1013.3
20260903071004 84 299 6.0 11.0 0.00 0.00 0.00 69 1013.3
20260903070718 84 310 7.0 10.0 0.00 0.00 0.00 69 1013.3
20260903070004 83 319 7.0 10.0 0.00 0.00 0.00 71 1013.3
20260903065503 83 321 4.0 8.0 0.00 0.00 0.00 71 1013.3
20260903065004 82 304 4.0 6.0 0.00 0.00 0.00 72 1013.3
20260903064504 80 304 4.0 6.0 0.00 0.00 0.00 74 1013.3
20260903064218 80 306 3.0 5.0 0.00 0.00 0.00 74 1013.3
20260903063503 79 325 3.0 5.0 0.00 0.00 0.00 74 1013.3
20260903063213 79 329 3.0 5.0 0.00 0.00 0.00 75 1013.3
20260903062503 78 321 4.0 8.0 0.00 0.00 0.00 75 1013.3
20260903062003 77 315 4.0 8.0 0.00 0.00 0.00 76 1013.3
20260903061503 76 315 4.0 4.0 0.00 0.00 0.00 77 1013.3
20260903061004 76 319 4.0 5.0 0.00 0.00 0.00 77 1013.3
20260903060713 75 323 4.0 5.0 0.00 0.00 0.00 77 1013.3
20260903060004 74 314 5.0 7.0 0.00 0.00 0.00 77 1013.3
20260903055504 74 321 5.0 5.0 0.00 0.00 0.00 77 1013.3
20260903055004 73 323 4.0 6.0 0.00 0.00 0.00 78 1013.3
20260903054715 73 327 4.0 6.0 0.00 0.00 0.00 78 1013.3
20260903054003 72 321 3.0 4.0 0.00 0.00 0.00 78 1013.3
20260903053503 72 314 3.0 4.0 0.00 0.00 0.00 78 1012.3
20260903053003 72 314 3.0 4.0 0.00 0.00 0.00 78 1012.3
20260903052503 72 315 3.0 4.0 0.00 0.00 0.00 78 1012.3
20260903052003 71 315 3.0 4.0 0.00 0.00 0.00 79 1012.3
20260903051503 71 311 3.0 5.0 0.00 0.00 0.00 79 1012.3
20260903051003 71 297 4.0 6.0 0.00 0.00 0.00 79 1012.3
20260903050503 71 288 5.0 6.0 0.00 0.00 0.00 79 1012.3
20260903050003 71 297 5.0 6.0 0.00 0.00 0.00 79 1012.3
20260903045503 71 298 4.0 5.0 0.00 0.00 0.00 80 1012.3
20260903045003 71 302 3.0 5.0 0.00 0.00 0.00 80 1012.3
20260903044503 71 315 1.0 3.0 0.00 0.00 0.00 80 1012.3
20260903044004 71 328 1.0 2.0 0.00 0.00 0.00 80 1012.3
20260903043504 72 360 0.0 2.0 0.00 0.00 0.00 80 1012.3
20260903043004 72 0 0.0 0.0 0.00 0.00 0.00 81 1012.3
20260903042504 72 0 0.0 0.0 0.00 0.00 0.00 81 1012.3
20260903042004 72 360 0.0 2.0 0.00 0.00 0.00 81 1012.3
20260903041504 72 11 1.0 2.0 0.00 0.00 0.00 81 1012.3
20260903041216 72 29 2.0 3.0 0.00 0.00 0.00 81 1012.3
20260903040504 72 38 4.0 5.0 0.00 0.00 0.00 82 1012.3
20260903040217 72 33 4.0 5.0 0.00 0.00 0.00 82 1012.3
20260903035506 72 353 3.0 4.0 0.00 0.00 0.00 82 1012.3
20260903035004 72 335 3.0 5.0 0.00 0.00 0.00 83 1012.3
20260903034506 72 335 2.0 5.0 0.00 0.00 0.00 83 1012.3
20260903034004 72 353 3.0 5.0 0.00 0.00 0.00 84 1012.3
20260903033504 72 357 3.0 5.0 0.00 0.00 0.00 84 1012.3
20260903033004 72 360 3.0 5.0 0.00 0.00 0.00 84 1012.3
20260903032504 72 346 3.0 5.0 0.00 0.00 0.00 84 1012.3
20260903032216 72 341 3.0 5.0 0.00 0.00 0.00 84 1012.3
20260903031503 73 359 3.0 5.0 0.00 0.00 0.00 84 1012.3
20260903031003 73 1 4.0 5.0 0.00 0.00 0.00 84 1012.3
20260903030505 73 5 4.0 5.0 0.00 0.00 0.00 84 1013.3
20260903030213 73 359 3.0 5.0 0.00 0.00 0.00 84 1013.3
20260903025504 73 350 4.0 7.0 0.00 0.00 0.00 84 1013.3
20260903025004 74 1 4.0 7.0 0.00 0.00 0.00 84 1013.3
20260903024504 74 3 4.0 6.0 0.00 0.00 0.00 83 1013.3
20260903024003 74 360 4.0 6.0 0.00 0.00 0.00 82 1013.3
20260903023503 74 359 4.0 5.0 0.00 0.00 0.00 81 1013.3
20260903023003 73 359 3.0 5.0 0.00 0.00 0.00 79 1013.3
20260903022714 73 1 3.0 5.0 0.00 0.00 0.00 79 1013.3
20260903022003 74 348 4.0 5.0 0.00 0.00 0.00 78 1013.3
20260903021503 74 335 4.0 5.0 0.00 0.00 0.00 78 1013.3
20260903021007 74 325 4.0 6.0 0.00 0.00 0.00 78 1013.3
20260903020716 74 324 4.0 6.0 0.00 0.00 0.00 78 1013.3
20260903020004 73 328 6.0 10.0 0.00 0.00 0.00 77 1013.3
20260903015503 73 332 7.0 10.0 0.00 0.00 0.00 78 1013.3
20260903015004 73 329 6.0 8.0 0.00 0.00 0.00 79 1013.3
20260903014504 73 330 4.0 7.0 0.00 0.00 0.00 79 1013.3
20260903014003 73 326 4.0 7.0 0.00 0.00 0.00 80 1013.3
20260903013503 73 327 6.0 10.0 0.00 0.00 0.00 80 1013.3
20260903013004 73 326 7.0 10.0 0.00 0.00 0.00 80 1013.3
20260903012503 72 320 6.0 10.0 0.00 0.00 0.00 79 1013.3
20260903012003 72 318 4.0 7.0 0.00 0.00 0.00 79 1013.3
20260903011503 72 322 4.0 5.0 0.00 0.00 0.00 79 1013.3
20260903011003 72 322 4.0 5.0 0.00 0.00 0.00 79 1013.3
20260903010503 72 322 4.0 5.0 0.00 0.00 0.00 79 1013.3
20260903010003 72 327 4.0 5.0 0.00 0.00 0.00 78 1013.3
20260903005503 72 325 3.0 5.0 0.00 0.00 0.00 77 1013.3
20260903005003 72 317 4.0 5.0 0.00 0.00 0.00 76 1013.3
20260903004504 73 316 4.0 5.0 0.00 0.00 0.00 76 1013.3
20260903004004 73 311 5.0 8.0 0.00 0.00 0.00 75 1013.3
20260903003503 73 304 5.0 8.0 0.00 0.00 0.00 75 1013.3
20260903003004 73 308 4.0 7.0 0.00 0.00 0.00 75 1013.3
20260903002504 73 313 5.0 5.0 0.00 0.00 0.00 75 1013.3
20260903002004 73 292 4.0 5.0 0.00 0.00 0.00 75 1014.3
20260903001504 73 276 3.0 5.0 0.00 0.00 0.00 75 1014.3
20260903001004 73 290 1.0 4.0 0.00 0.00 0.00 75 1014.3
20260903000504 73 0 0.0 0.0 0.00 0.00 0.00 75 1013.3
20260903000004 73 0 0.0 0.0 0.00 0.00 0.00 75 1013.3
20260902235718 73 0 0.0 0.0 0.00 0.00 0.00 75 1013.3
20260902235004 73 320 1.0 3.0 0.00 0.00 0.00 74 1013.3
20260902234504 73 331 1.0 3.0 0.00 0.00 0.00 75 1013.3
20260902234004 73 360 1.0 2.0 0.00 0.00 0.00 74 1013.3
20260902233715 73 360 1.0 2.0 0.00 0.00 0.00 74 1014.3
20260902233004 73 356 1.0 2.0 0.00 0.00 0.00 72 1014.3
20260902232503 74 332 0.0 2.0 0.00 0.00 0.00 72 1014.3
20260902232213 74 332 0.0 2.0 0.00 0.00 0.00 71 1014.3
20260902231504 74 0 0.0 0.0 0.00 0.00 0.00 71 1014.3
20260902231214 74 0 0.0 0.0 0.00 0.00 0.00 71 1014.3
20260902230504 74 352 0.0 2.0 0.00 0.00 0.00 71 1014.3
20260902230004 74 354 1.0 2.0 0.00 0.00 0.00 71 1014.3
20260902225504 74 5 0.0 2.0 0.00 0.00 0.00 70 1014.3
20260902225004 75 22 1.0 2.0 0.00 0.00 0.00 70 1014.3
20260902224503 75 26 1.0 2.0 0.00 0.00 0.00 70 1014.3
20260902224004 75 45 0.0 2.0 0.00 0.00 0.00 69 1014.3
20260902223504 75 45 1.0 2.0 0.00 0.00 0.00 69 1014.3
20260902223003 75 42 2.0 3.0 0.00 0.00 0.00 68 1014.3
20260902222504 75 31 1.0 3.0 0.00 0.00 0.00 68 1014.3
20260902222214 75 5 0.0 2.0 0.00 0.00 0.00 68 1014.3
20260902221503 76 0 0.0 0.0 0.00 0.00 0.00 66 1014.3
20260902221215 76 0 0.0 0.0 0.00 0.00 0.00 66 1014.3
20260902220713 77 0 0.0 0.0 0.00 0.00 0.00 65 1014.3
20260902220004 78 0 0.0 0.0 0.00 0.00 0.00 65 1014.3
20260902215503 78 0 0.0 0.0 0.00 0.00 0.00 65 1014.3
20260902215003 78 0 0.0 0.0 0.00 0.00 0.00 65 1014.3
20260902214715 79 0 0.0 0.0 0.00 0.00 0.00 65 1014.3
20260902214005 79 45 0.0 1.0 0.00 0.00 0.00 66 1014.3
20260902213716 79 45 0.0 1.0 0.00 0.00 0.00 66 1014.3
20260902213003 78 45 0.0 1.0 0.00 0.00 0.00 65 1014.3
20260902212503 78 360 0.0 1.0 0.00 0.00 0.00 65 1014.3
20260902212003 78 360 0.0 1.0 0.00 0.00 0.00 64 1014.3
20260902211503 78 315 0.0 1.0 0.00 0.00 0.00 64 1014.3
20260902211216 78 315 1.0 3.0 0.00 0.00 0.00 64 1014.3
20260902210503 79 315 1.0 3.0 0.00 0.00 0.00 64 1014.3
20260902210003 79 0 0.0 0.0 0.00 0.00 0.00 63 1014.3
20260902205503 79 0 0.0 0.0 0.00 0.00 0.00 63 1014.3
20260902205003 80 360 0.0 1.0 0.00 0.00 0.00 62 1014.3
20260902204503 80 14 1.0 2.0 0.00 0.00 0.00 62 1014.3
20260902204003 81 19 0.0 2.0 0.00 0.00 0.00 61 1014.3
20260902203504 81 0 0.0 0.0 0.00 0.00 0.00 60 1014.3
20260902203004 81 0 0.0 0.0 0.00 0.00 0.00 60 1014.3
20260902202504 81 0 0.0 0.0 0.00 0.00 0.00 60 1014.3
20260902202004 81 0 0.0 0.0 0.00 0.00 0.00 60 1014.3
20260902201504 81 22 0.0 1.0 0.00 0.00 0.00 60 1014.3
20260902201005 82 11 0.0 1.0 0.00 0.00 0.00 60 1014.3
20260902200504 82 21 1.0 4.0 0.00 0.00 0.00 60 1014.3
20260902200004 82 18 2.0 4.0 0.00 0.00 0.00 61 1014.3
20260902195504 82 18 1.0 4.0 0.00 0.00 0.00 60 1014.3
20260902195004 82 5 2.0 3.0 0.00 0.00 0.00 60 1014.3
20260902194716 82 4 2.0 4.0 0.00 0.00 0.00 60 1014.3
20260902194004 83 342 2.0 5.0 0.00 0.00 0.00 60 1014.3
20260902193504 83 335 4.0 5.0 0.00 0.00 0.00 59 1014.3
20260902193215 83 341 4.0 6.0 0.00 0.00 0.00 60 1014.3
20260902192504 84 340 5.0 10.0 0.00 0.00 0.00 59 1014.3
20260902192216 84 334 5.0 10.0 0.00 0.00 0.00 59 1014.3
20260902191504 84 324 6.0 9.0 0.00 0.00 0.00 58 1014.3
20260902191004 84 333 7.0 10.0 0.00 0.00 0.00 57 1014.3
20260902190504 85 337 8.0 10.0 0.00 0.00 0.00 56 1013.3
20260902190004 85 322 10.0 14.0 0.00 0.00 0.00 55 1013.3
20260902185504 85 316 10.0 14.0 0.00 0.00 0.00 54 1013.3
20260902185004 85 322 9.0 13.0 0.00 0.00 0.00 52 1013.3
20260902184504 85 320 9.0 13.0 0.00 0.00 0.00 51 1013.3
20260902184004 85 312 8.0 11.0 0.00 0.00 0.00 49 1013.3
20260902183504 86 315 8.0 11.0 0.00 0.00 0.00 47 1013.3
20260902183004 86 320 8.0 9.0 0.00 0.00 0.00 45 1013.3
20260902182714 86 323 8.0 9.0 0.00 0.00 0.00 45 1013.3
20260902182217 86 320 7.0 9.0 0.00 0.00 0.00 45 1013.3
20260902181503 87 326 6.0 8.0 0.00 0.00 0.00 44 1013.3
20260902181003 87 318 6.0 8.0 0.00 0.00 0.00 44 1013.3
20260902180503 88 324 6.0 8.0 0.00 0.00 0.00 43 1013.3
20260902180006 88 328 6.0 8.0 0.00 0.00 0.00 42 1013.3
20260902175503 89 321 5.0 7.0 0.00 0.00 0.00 41 1013.3
20260902175005 89 327 4.0 6.0 0.00 0.00 0.00 41 1013.3
20260902174503 89 338 3.0 5.0 0.00 0.00 0.00 40 1013.3
20260902174004 90 338 4.0 5.0 0.00 0.00 0.00 39 1013.3
20260902173503 90 331 5.0 9.0 0.00 0.00 0.00 38 1013.3
20260902173003 91 324 8.0 13.0 0.00 0.00 0.00 38 1013.3
20260902172714 91 321 8.0 13.0 0.00 0.00 0.00 38 1013.3
20260902172004 91 322 8.0 12.0 0.00 0.00 0.00 36 1013.3
20260902171503 92 317 7.0 9.0 0.00 0.00 0.00 36 1013.3
20260902171003 92 322 7.0 13.0 0.00 0.00 0.00 35 1013.3
20260902170504 92 325 6.0 13.0 0.00 0.00 0.00 35 1013.3
20260902170003 93 318 7.0 13.0 0.00 0.00 0.00 35 1013.3
20260902165503 93 331 9.0 13.0 0.00 0.00 0.00 34 1013.3
20260902165003 93 329 8.0 13.0 0.00 0.00 0.00 34 1013.3
20260902164503 94 328 8.0 12.0 0.00 0.00 0.00 36 1013.3
20260902164003 94 332 9.0 12.0 0.00 0.00 0.00 37 1013.3
20260902163503 94 323 10.0 14.0 0.00 0.00 0.00 36 1013.3
20260902163004 94 325 11.0 19.0 0.00 0.00 0.00 34 1013.3
20260902162504 95 327 12.0 19.0 0.00 0.00 0.00 33 1013.3
20260902162218 95 318 12.0 19.0 0.00 0.00 0.00 32 1013.3